W4GHW Weather Reports


Display with metric or nautical units.
time (UTC)temp
F
wind
direction
speed
MPH
gust
MPH
rain 1hr
in
rain 24hr
in
rain mn
in
humidity
%
barometer
mb
20260504082005 51 235 0.0 0.0 0.00 0.00 0.00 75 1019.2
20260504081004 51 235 0.0 0.0 0.00 0.00 0.00 74 1019.1
20260504050004 55 235 0.0 0.0 0.00 0.00 0.00 68 1020.1
20260504045005 55 235 0.0 2.0 0.00 0.00 0.00 67 1020.0
20260504044004 55 235 2.0 3.0 0.00 0.00 0.00 70 1020.0
20260504043005 55 279 0.0 0.0 0.00 0.00 0.00 75 1019.8
20260504042004 56 279 0.0 0.0 0.00 0.00 0.00 75 1019.7
20260504041004 56 279 0.0 0.0 0.00 0.00 0.00 74 1019.6
20260504040004 56 279 0.0 0.0 0.00 0.00 0.00 72 1019.5
20260504035004 56 279 0.0 1.0 0.00 0.00 0.00 73 1019.6
20260504034005 57 302 0.0 2.0 0.00 0.00 0.00 72 1019.9
20260504033004 57 302 0.0 1.0 0.00 0.00 0.00 69 1019.9
20260504031004 57 302 0.0 1.0 0.00 0.00 0.00 66 1019.8
20260504030005 58 302 0.0 0.0 0.00 0.00 0.00 66 1019.9
20260504025004 58 302 0.0 0.0 0.00 0.00 0.00 66 1019.9
20260504023004 59 302 0.0 0.0 0.00 0.00 0.00 63 1019.8
20260504021004 60 302 0.0 1.0 0.00 0.01 0.00 62 1019.4
20260504020004 60 302 0.0 0.0 0.00 0.01 0.00 59 1019.3
20260504015004 61 302 0.0 0.0 0.00 0.01 0.00 57 1019.1
20260504014005 61 302 0.0 2.0 0.00 0.02 0.00 56 1019.0
20260504013004 62 302 0.0 1.0 0.00 0.02 0.00 54 1018.9
20260504011004 64 302 0.0 0.0 0.00 0.02 0.00 50 1018.7
20260504010004 65 302 0.0 0.0 0.00 0.02 0.00 50 1018.7
20260504005004 66 302 0.0 1.0 0.00 0.02 0.00 48 1018.6
20260504004003 67 302 0.0 0.0 0.00 0.02 0.00 45 1018.5
20260504003004 69 302 0.0 0.0 0.00 0.02 0.00 42 1018.5
20260504002004 70 302 0.0 0.0 0.00 0.02 0.00 39 1018.4
20260504000004 72 302 1.0 3.0 0.00 0.04 0.00 36 1018.4